GW3962 Weather Reports


Display with metric or nautical units.
time (UTC)temp
F
wind
direction
speed
MPH
gust
MPH
rain 1hr
in
rain 24hr
in
rain mn
in
humidity
%
barometer
mb
20260905115027 76 260 2.0 2.0 0.00 0.00 0.00 94 1014.6
20260905114526 76 212 3.0 3.0 0.00 0.00 0.00 94 1014.7
20260905114025 76 256 3.0 3.0 0.00 0.00 0.00 94 1014.8
20260905113521 76 270 2.0 2.0 0.00 0.00 0.00 94 1014.9
20260905113016 76 235 3.0 3.0 0.00 0.00 0.00 94 1014.6
20260905112511 76 248 3.0 3.0 0.00 0.00 0.00 94 1014.8
20260905112007 76 240 3.0 3.0 0.00 0.00 0.00 94 1014.4
20260905111502 76 267 3.0 3.0 0.00 0.00 0.00 93 1014.4
20260905111001 76 262 3.0 3.0 0.00 0.00 0.00 93 1014.3
20260905110455 76 232 3.0 3.0 0.00 0.00 0.00 93 1014.4
20260905105954 76 219 3.0 3.0 0.00 0.00 0.00 93 1014.5
20260905105449 76 238 4.0 5.0 0.00 0.00 0.00 93 1014.3
20260905104948 76 217 2.0 2.0 0.00 0.00 0.00 93 1014.4
20260905104444 76 263 0.0 0.0 0.00 0.00 0.00 93 1014.3
20260905103939 76 263 0.0 0.0 0.00 0.00 0.00 93 1014.3
20260905103435 76 287 0.0 0.0 0.00 0.00 0.00 93 1014.4
20260905102931 76 280 0.0 0.0 0.00 0.00 0.00 93 1014.4
20260905102427 76 249 0.0 0.0 0.00 0.00 0.00 93 1014.5
20260905101921 76 267 2.0 2.0 0.00 0.00 0.00 93 1014.6
20260905101420 76 225 3.0 3.0 0.00 0.00 0.00 93 1014.5
20260905100914 77 208 0.0 0.0 0.00 0.00 0.00 92 1014.5
20260905100405 77 278 0.0 0.0 0.00 0.00 0.00 92 1014.6
20260905095904 77 294 0.0 0.0 0.00 0.00 0.00 92 1014.6
20260905095358 77 297 1.0 1.0 0.00 0.00 0.00 92 1014.3
20260905094853 77 247 3.0 3.0 0.00 0.00 0.00 92 1014.4
20260905094349 77 241 4.0 5.0 0.00 0.00 0.00 92 1014.5
20260905093847 77 234 4.0 5.0 0.00 0.00 0.00 92 1014.4
20260905093343 77 216 2.0 3.0 0.00 0.00 0.00 91 1014.3
20260905092839 77 220 4.0 6.0 0.00 0.00 0.00 91 1014.3
20260905092339 77 234 4.0 6.0 0.00 0.00 0.00 91 1014.3
20260905091834 77 244 4.0 6.0 0.00 0.00 0.00 91 1014.3
20260905091334 77 270 5.0 6.0 0.00 0.00 0.00 91 1014.4
20260905090832 77 264 4.0 5.0 0.00 0.00 0.00 90 1014.5
20260905090329 77 220 4.0 6.0 0.00 0.00 0.00 90 1014.5
20260905085828 78 243 4.0 5.0 0.00 0.00 0.00 90 1014.6
20260905085322 78 232 3.0 3.0 0.00 0.00 0.00 90 1014.3
20260905084818 78 187 6.0 7.0 0.00 0.00 0.00 90 1014.5
20260905084317 78 222 7.0 8.0 0.00 0.00 0.00 90 1014.4
20260905083812 78 216 4.0 6.0 0.00 0.00 0.00 89 1014.5
20260905083308 78 253 5.0 7.0 0.00 0.00 0.00 89 1014.4
20260905082803 78 216 6.0 7.0 0.00 0.00 0.00 89 1014.4
20260905082259 78 203 6.0 7.0 0.00 0.00 0.00 89 1014.5
20260905081754 78 242 6.0 8.0 0.00 0.00 0.00 89 1014.6
20260905081249 78 220 6.0 7.0 0.00 0.00 0.00 88 1014.6
20260905080748 78 239 5.0 7.0 0.00 0.00 0.00 88 1014.7
20260905080243 78 205 6.0 8.0 0.00 0.00 0.00 88 1014.6
20260905075742 78 202 5.0 7.0 0.00 0.00 0.00 88 1014.7
20260905075241 78 222 7.0 8.0 0.00 0.00 0.00 88 1014.7
20260905074740 78 226 5.0 6.0 0.00 0.00 0.00 88 1014.6
20260905074236 78 207 6.0 8.0 0.00 0.00 0.00 87 1014.9
20260905073732 78 200 6.0 7.0 0.00 0.00 0.00 87 1014.9
20260905073227 79 198 6.0 7.0 0.00 0.00 0.00 87 1014.7
20260905072726 79 212 5.0 6.0 0.00 0.00 0.00 87 1015.0
20260905072222 79 214 4.0 5.0 0.00 0.00 0.00 87 1014.8
20260905071718 79 230 5.0 6.0 0.00 0.00 0.00 86 1014.7
20260905071214 79 197 6.0 7.0 0.00 0.00 0.00 86 1015.0
20260905070709 79 218 5.0 6.0 0.00 0.00 0.00 86 1015.1
20260905070204 79 225 4.0 5.0 0.00 0.00 0.00 86 1014.9
20260905065703 79 247 5.0 6.0 0.00 0.00 0.00 85 1015.0
20260905065158 79 198 7.0 9.0 0.00 0.00 0.00 85 1015.0
20260905064653 79 219 8.0 13.0 0.00 0.00 0.00 85 1014.9
20260905064149 80 207 5.0 6.0 0.00 0.00 0.00 84 1015.1
20260905063647 80 190 10.0 11.0 0.00 0.00 0.00 84 1015.1
20260905063143 80 197 8.0 9.0 0.00 0.00 0.00 84 1014.7
20260905062639 80 188 6.0 8.0 0.00 0.00 0.00 83 1015.0
20260905062138 80 197 8.0 9.0 0.00 0.00 0.00 83 1015.1
20260905061632 80 257 5.0 6.0 0.00 0.00 0.00 82 1015.0
20260905061127 80 215 4.0 5.0 0.00 0.00 0.00 82 1015.2
20260905060622 80 222 6.0 8.0 0.00 0.00 0.00 81 1015.2
20260905060119 80 203 5.0 5.0 0.00 0.00 0.00 81 1015.0
20260905055616 80 197 6.0 7.0 0.00 0.00 0.00 80 1015.1
20260905055106 80 177 6.0 7.0 0.00 0.00 0.00 80 1014.9
20260905054602 80 268 3.0 3.0 0.00 0.00 0.00 80 1015.0
20260905054057 80 174 3.0 5.0 0.00 0.00 0.00 80 1015.1
20260905053556 80 187 6.0 8.0 0.00 0.00 0.00 79 1015.2
20260905053052 81 235 6.0 7.0 0.00 0.00 0.00 79 1015.0
20260905052551 81 208 6.0 8.0 0.00 0.00 0.00 78 1015.2
20260905052046 81 205 3.0 3.0 0.00 0.00 0.00 78 1015.1
20260905051542 81 179 5.0 7.0 0.00 0.00 0.00 77 1015.1
20260905051038 81 210 6.0 7.0 0.00 0.00 0.00 77 1015.2
20260905050534 81 212 7.0 9.0 0.00 0.00 0.00 77 1015.1
20260905050031 81 305 4.0 6.0 0.00 0.00 0.00 77 1015.3
20260905045525 81 197 5.0 6.0 0.00 0.00 0.00 76 1015.1
20260905045020 82 190 5.0 7.0 0.00 0.00 0.00 76 1015.3
20260905044514 82 200 6.0 7.0 0.00 0.00 0.00 76 1015.3
20260905044009 82 202 8.0 9.0 0.00 0.00 0.00 75 1014.9
20260905043508 82 198 5.0 6.0 0.00 0.00 0.00 75 1015.2
20260905043003 82 183 6.0 7.0 0.00 0.00 0.00 75 1014.9
20260905042502 82 202 5.0 7.0 0.00 0.00 0.00 74 1015.0
20260905041957 82 156 5.0 6.0 0.00 0.00 0.00 74 1015.1
20260905041453 82 203 7.0 9.0 0.00 0.00 0.00 73 1015.1
20260905040948 82 176 8.0 9.0 0.00 0.00 0.00 73 1015.0
20260905040447 82 166 7.0 8.0 0.00 0.00 0.00 73 1014.8
20260905035947 83 167 5.0 6.0 0.00 0.00 0.00 72 1015.1
20260905035442 83 179 4.0 6.0 0.00 0.00 0.00 71 1015.1
20260905034939 83 175 6.0 8.0 0.00 0.00 0.00 71 1014.9
20260905034434 83 177 6.0 8.0 0.00 0.00 0.00 71 1015.1
20260905033933 83 142 7.0 9.0 0.00 0.00 0.00 71 1015.2
20260905033428 83 160 4.0 6.0 0.00 0.00 0.00 70 1015.0
20260905032928 83 187 4.0 6.0 0.00 0.00 0.00 70 1014.9
20260905032424 83 194 5.0 6.0 0.00 0.00 0.00 70 1015.0
20260905031918 83 202 5.0 6.0 0.00 0.00 0.00 70 1014.9
20260905031415 83 152 4.0 7.0 0.00 0.00 0.00 70 1015.0
20260905030910 83 172 6.0 8.0 0.00 0.00 0.00 71 1014.9
20260905030405 83 246 1.0 2.0 0.00 0.00 0.00 71 1014.8
20260905025904 83 143 4.0 5.0 0.00 0.00 0.00 71 1014.9
20260905025400 84 154 3.0 5.0 0.00 0.00 0.00 70 1014.8
20260905024856 84 185 6.0 7.0 0.00 0.00 0.00 70 1014.7
20260905024350 84 195 3.0 3.0 0.00 0.00 0.00 70 1014.5
20260905023846 84 185 5.0 8.0 0.00 0.00 0.00 70 1014.7
20260905023342 84 125 5.0 7.0 0.00 0.00 0.00 70 1014.3
20260905022840 84 131 8.0 10.0 0.00 0.00 0.00 69 1014.4
20260905022335 84 217 5.0 6.0 0.00 0.00 0.00 70 1014.4
20260905021830 84 182 6.0 8.0 0.00 0.00 0.00 70 1014.5
20260905021326 84 167 8.0 9.0 0.00 0.00 0.00 70 1014.2
20260905020826 84 247 3.0 3.0 0.00 0.00 0.00 70 1014.3
20260905020315 84 154 6.0 7.0 0.00 0.00 0.00 69 1014.2
20260905015813 85 187 8.0 9.0 0.00 0.00 0.00 69 1014.1
20260905015308 85 173 9.0 10.0 0.00 0.00 0.00 69 1014.2
20260905014807 85 200 8.0 10.0 0.00 0.00 0.00 68 1014.2
20260905014303 85 219 7.0 8.0 0.00 0.00 0.00 68 1014.0
20260905013753 85 151 6.0 7.0 0.00 0.00 0.00 67 1014.0
20260905013248 85 258 5.0 6.0 0.00 0.00 0.00 66 1013.9
20260905012743 86 168 5.0 6.0 0.00 0.00 0.00 65 1013.8
20260905012239 86 235 4.0 6.0 0.00 0.00 0.00 64 1014.0
20260905011736 86 240 2.0 2.0 0.00 0.00 0.00 64 1013.9
20260905011226 86 191 7.0 9.0 0.00 0.00 0.00 63 1013.8
20260905010725 86 160 6.0 7.0 0.00 0.00 0.00 63 1013.6
20260905010220 86 133 6.0 7.0 0.00 0.00 0.00 63 1013.8
20260905005717 86 163 5.0 7.0 0.00 0.00 0.00 63 1013.8
20260905005213 86 101 7.0 9.0 0.00 0.00 0.00 63 1013.8
20260905004707 86 184 4.0 6.0 0.00 0.00 0.00 64 1013.6
20260905004202 86 162 6.0 8.0 0.00 0.00 0.00 64 1013.6
20260905003657 87 138 3.0 6.0 0.00 0.00 0.00 64 1013.6
20260905003154 87 140 5.0 7.0 0.00 0.00 0.00 63 1013.3
20260905002649 87 177 8.0 8.0 0.00 0.00 0.00 62 1013.1
20260905002148 87 197 6.0 7.0 0.00 0.00 0.00 62 1013.5
20260905001643 87 131 7.0 8.0 0.00 0.00 0.00 64 1013.5
20260905001142 88 152 6.0 9.0 0.00 0.00 0.00 63 1013.3
20260905000638 89 136 9.0 11.0 0.00 0.00 0.00 62 1013.3
20260905000134 89 117 5.0 7.0 0.00 0.00 0.00 59 1013.2
20260904235633 89 126 9.0 15.0 0.00 0.00 0.00 59 1013.0
20260904235133 90 168 8.0 9.0 0.00 0.00 0.00 58 1012.9
20260904234628 91 152 9.0 13.0 0.00 0.00 0.00 57 1013.0
20260904234124 91 324 3.0 3.0 0.00 0.00 0.00 49 1012.9
20260904233619 91 137 5.0 9.0 0.00 0.00 0.00 47 1012.9
20260904233115 91 158 5.0 7.0 0.00 0.00 0.00 45 1012.7
20260904232612 91 166 5.0 7.0 0.00 0.00 0.00 45 1013.0
20260904232108 91 244 4.0 6.0 0.00 0.00 0.00 44 1012.9
20260904231603 91 124 7.0 8.0 0.00 0.00 0.00 42 1013.1
20260904231058 92 208 7.0 8.0 0.00 0.00 0.00 40 1013.1
20260904230557 92 180 7.0 8.0 0.00 0.00 0.00 41 1013.1
20260904230053 91 197 6.0 7.0 0.00 0.00 0.00 42 1013.1
20260904225550 91 210 6.0 8.0 0.00 0.00 0.00 41 1013.2
20260904225046 91 241 3.0 3.0 0.00 0.00 0.00 43 1013.5
20260904224540 91 228 5.0 8.0 0.00 0.00 0.00 44 1013.2
20260904224035 91 212 10.0 11.0 0.00 0.00 0.00 46 1013.1
20260904223533 91 210 6.0 7.0 0.00 0.00 0.00 46 1013.3
20260904223030 91 201 8.0 10.0 0.00 0.00 0.00 48 1013.5
20260904222525 92 207 8.0 10.0 0.00 0.00 0.00 48 1013.2
20260904222020 91 201 6.0 7.0 0.00 0.00 0.00 48 1013.5
20260904221514 92 216 8.0 9.0 0.00 0.00 0.00 48 1013.5
20260904221009 93 261 6.0 9.0 0.00 0.00 0.00 46 1013.4
20260904220509 93 172 4.0 6.0 0.00 0.00 0.00 46 1013.4
20260904220005 92 181 9.0 13.0 0.00 0.00 0.00 45 1013.5
20260904215459 92 192 5.0 7.0 0.00 0.00 0.00 44 1013.6
20260904214955 92 133 8.0 10.0 0.00 0.00 0.00 45 1013.6
20260904214450 91 203 3.0 5.0 0.00 0.00 0.00 46 1013.6
20260904213945 91 118 7.0 9.0 0.00 0.00 0.00 47 1013.5
20260904213438 91 270 4.0 7.0 0.00 0.00 0.00 46 1013.7
20260904212935 92 181 9.0 11.0 0.00 0.00 0.00 44 1013.8
20260904212434 94 184 6.0 9.0 0.00 0.00 0.00 44 1013.7
20260904211929 92 168 5.0 8.0 0.00 0.00 0.00 45 1013.7
20260904211424 92 177 5.0 6.0 0.00 0.00 0.00 48 1014.1
20260904210920 91 43 6.0 8.0 0.00 0.00 0.00 48 1013.6
20260904210419 91 113 7.0 8.0 0.00 0.00 0.00 48 1014.0
20260904205914 91 200 6.0 8.0 0.00 0.00 0.00 51 1014.0
20260904205410 92 202 9.0 13.0 0.00 0.00 0.00 54 1014.0
20260904204907 92 185 6.0 7.0 0.00 0.00 0.00 53 1014.1
20260904204403 92 181 6.0 8.0 0.00 0.00 0.00 50 1014.2
20260904203859 91 193 8.0 9.0 0.00 0.00 0.00 51 1014.0
20260904203355 92 193 7.0 10.0 0.00 0.00 0.00 49 1014.3
20260904202850 91 130 5.0 8.0 0.00 0.00 0.00 50 1014.3
20260904202346 90 177 8.0 9.0 0.00 0.00 0.00 55 1014.4
20260904201842 91 179 9.0 10.0 0.00 0.00 0.00 52 1014.3
20260904201342 90 181 5.0 7.0 0.00 0.00 0.00 55 1014.3
20260904200837 90 79 9.0 10.0 0.00 0.00 0.00 58 1014.5
20260904200336 91 136 10.0 11.0 0.00 0.00 0.00 54 1014.5
20260904195836 90 179 6.0 11.0 0.00 0.00 0.00 58 1014.8
20260904195334 90 133 6.0 8.0 0.00 0.00 0.00 57 1014.6
20260904194829 91 218 6.0 8.0 0.00 0.00 0.00 58 1014.6
20260904194328 90 302 2.0 2.0 0.00 0.00 0.00 60 1014.7
20260904193823 90 204 6.0 7.0 0.00 0.00 0.00 60 1014.6
20260904193319 91 118 6.0 8.0 0.00 0.00 0.00 58 1014.9
20260904192814 90 71 7.0 11.0 0.00 0.00 0.00 58 1014.9
20260904192309 89 151 7.0 9.0 0.00 0.00 0.00 61 1015.0
20260904191806 89 205 9.0 10.0 0.00 0.00 0.00 61 1015.0
20260904191302 89 110 6.0 8.0 0.00 0.00 0.00 61 1015.0
20260904190758 90 155 7.0 10.0 0.00 0.00 0.00 59 1015.1
20260904190254 89 199 6.0 8.0 0.00 0.00 0.00 59 1015.2
20260904185750 88 216 6.0 9.0 0.00 0.00 0.00 63 1015.3
20260904185245 88 215 7.0 8.0 0.00 0.00 0.00 64 1015.4
20260904184744 88 190 7.0 8.0 0.00 0.00 0.00 64 1015.5
20260904184241 88 222 5.0 5.0 0.00 0.00 0.00 63 1015.8
20260904183736 87 158 6.0 8.0 0.00 0.00 0.00 63 1015.5
20260904183231 87 178 5.0 7.0 0.00 0.00 0.00 65 1015.6
20260904182726 88 187 5.0 7.0 0.00 0.00 0.00 63 1015.4
20260904182221 87 217 6.0 8.0 0.00 0.00 0.00 63 1015.3
20260904181717 87 203 11.0 13.0 0.00 0.00 0.00 64 1015.4
20260904181216 87 175 11.0 13.0 0.00 0.00 0.00 63 1015.7
20260904180711 87 237 6.0 7.0 0.00 0.00 0.00 65 1015.8
20260904180206 87 230 10.0 11.0 0.00 0.00 0.00 65 1015.7
20260904175705 88 174 7.0 9.0 0.00 0.00 0.00 64 1015.8
20260904175204 88 144 5.0 7.0 0.00 0.00 0.00 66 1015.7
20260904174658 87 252 5.0 7.0 0.00 0.00 0.00 63 1015.8
20260904174155 88 276 6.0 9.0 0.00 0.00 0.00 61 1016.1
20260904173651 87 191 7.0 8.0 0.00 0.00 0.00 66 1015.9
20260904173151 87 201 11.0 13.0 0.00 0.00 0.00 62 1015.9
20260904172647 87 197 7.0 10.0 0.00 0.00 0.00 64 1015.9
20260904172146 88 214 7.0 9.0 0.00 0.00 0.00 67 1016.1
20260904171642 88 145 5.0 7.0 0.00 0.00 0.00 67 1016.1
20260904171137 87 228 4.0 5.0 0.00 0.00 0.00 66 1016.3
20260904170633 86 179 6.0 7.0 0.00 0.00 0.00 69 1016.4
20260904170129 87 175 9.0 14.0 0.00 0.00 0.00 67 1016.3
20260904165627 87 202 6.0 8.0 0.00 0.00 0.00 70 1016.3
20260904165121 86 217 4.0 5.0 0.00 0.00 0.00 72 1016.1
20260904164621 86 215 6.0 7.0 0.00 0.00 0.00 72 1016.1
20260904164117 85 267 3.0 3.0 0.00 0.00 0.00 73 1016.2
20260904163612 85 243 7.0 8.0 0.00 0.00 0.00 74 1016.1
20260904163108 85 249 3.0 3.0 0.00 0.00 0.00 74 1016.1
20260904162602 84 201 7.0 9.0 0.00 0.00 0.00 76 1016.2
20260904162057 85 210 8.0 10.0 0.00 0.00 0.00 76 1016.2
20260904161552 84 216 7.0 9.0 0.00 0.00 0.00 77 1016.2
20260904161047 84 191 7.0 9.0 0.00 0.00 0.00 76 1016.3
20260904160542 83 263 4.0 7.0 0.00 0.00 0.00 79 1016.2
20260904160038 83 231 4.0 5.0 0.00 0.00 0.00 79 1016.5
20260904155537 83 210 6.0 7.0 0.00 0.00 0.00 79 1016.2
20260904155032 82 175 8.0 9.0 0.00 0.00 0.00 81 1015.8
20260904154526 82 214 8.0 10.0 0.00 0.00 0.00 82 1016.2
20260904154020 82 214 8.0 10.0 0.00 0.00 0.00 83 1015.8
20260904153520 81 183 9.0 11.0 0.00 0.00 0.00 84 1016.1
20260904153017 81 215 9.0 11.0 0.00 0.00 0.00 85 1015.8
20260904152512 81 221 6.0 9.0 0.00 0.00 0.00 85 1015.9
20260904152007 80 234 9.0 11.0 0.00 0.00 0.00 85 1015.7
20260904151502 80 223 8.0 9.0 0.00 0.00 0.00 87 1015.7
20260904150956 80 210 9.0 10.0 0.00 0.00 0.00 87 1015.6
20260904150451 79 234 8.0 11.0 0.00 0.00 0.00 88 1015.6
20260904145949 79 284 5.0 7.0 0.00 0.00 0.00 89 1015.5
20260904145445 79 218 4.0 6.0 0.00 0.00 0.00 89 1015.8
20260904144941 79 207 7.0 10.0 0.00 0.00 0.00 90 1016.2
20260904144436 79 210 6.0 8.0 0.00 0.00 0.00 90 1015.9
20260904143932 79 214 6.0 7.0 0.00 0.00 0.00 90 1015.7
20260904143428 79 212 4.0 8.0 0.00 0.00 0.00 90 1015.8
20260904142925 79 262 5.0 8.0 0.00 0.00 0.00 90 1015.9
20260904142421 78 203 8.0 9.0 0.00 0.00 0.00 90 1015.8
20260904141921 78 221 5.0 6.0 0.00 0.00 0.00 91 1015.7
20260904141416 78 218 5.0 7.0 0.00 0.00 0.00 92 1015.8
20260904140912 78 283 4.0 5.0 0.00 0.00 0.00 92 1016.1
20260904140412 78 223 4.0 5.0 0.00 0.00 0.00 92 1015.8
20260904135911 78 267 5.0 6.0 0.00 0.00 0.00 92 1015.8
20260904135406 78 198 6.0 7.0 0.00 0.00 0.00 92 1015.8
20260904134903 78 210 6.0 7.0 0.00 0.00 0.00 92 1015.9
20260904134402 78 227 4.0 6.0 0.00 0.00 0.00 92 1015.9
20260904133901 78 221 3.0 5.0 0.00 0.00 0.00 92 1015.9
20260904133357 78 236 3.0 3.0 0.00 0.00 0.00 92 1015.6
20260904132852 78 229 4.0 5.0 0.00 0.00 0.00 91 1016.1
20260904132348 78 256 3.0 5.0 0.00 0.00 0.00 91 1015.9
20260904131847 78 266 2.0 2.0 0.00 0.00 0.00 91 1015.7
20260904131343 78 243 3.0 3.0 0.00 0.00 0.00 90 1015.8
20260904130838 78 244 2.0 3.0 0.00 0.00 0.00 89 1015.9
20260904130337 78 282 1.0 2.0 0.00 0.00 0.00 89 1015.8
20260904125832 78 272 2.0 2.0 0.00 0.00 0.00 89 1015.7
20260904125329 78 205 8.0 9.0 0.00 0.00 0.00 89 1015.8
20260904124827 78 210 3.0 3.0 0.00 0.00 0.00 89 1015.8
20260904124324 78 206 5.0 6.0 0.00 0.00 0.00 89 1015.8
20260904123819 78 201 3.0 3.0 0.00 0.00 0.00 89 1015.6
20260904123314 78 191 3.0 5.0 0.00 0.00 0.00 89 1015.6
20260904122808 78 223 3.0 3.0 0.00 0.00 0.00 89 1015.5
20260904122306 78 206 3.0 3.0 0.00 0.00 0.00 90 1015.3
20260904121758 78 191 6.0 7.0 0.00 0.00 0.00 90 1015.2
20260904121254 78 247 5.0 6.0 0.00 0.00 0.00 90 1015.0
20260904120751 78 191 4.0 7.0 0.00 0.00 0.00 90 1015.3
20260904120246 78 194 7.0 9.0 0.00 0.00 0.00 90 1015.1
20260904115741 78 176 6.0 7.0 0.00 0.00 0.00 90 1014.8